Location: Earls Croome
(52.0667°N, 2.2000°W)
Time: 09:22:22
(UTC+00:00)

NOSS 3-3 (C) - Pass Details

Date: 17 November 2019
Orbit: 844 x 1368 km, 63.4° (Epoch: 05 December)

Event Time Altitude Azimuth Distance (km) Brightness Sun altitude
Exits shadow 04:51:53 20° 202° (SSW) 1,964 5.4 -24.2°
Maximum altitude 04:56:03 63° 127° (SE) 1,075 4.3 -23.6°
Drops below altitude 10° 05:02:42 10° 49° (NE) 2,900 7.1 -22.6°
Sets 05:05:33 0° 46° (NE) 3,941 7.8 -22.1°
